Regional Weather Roundup
Issued by NWS

Home | Current Version | Previous Version | Graphics & Text | Print | Product List | Glossary On
Versions: 1 2 3 4 5 6 7 8 9 10 11 12 13 14 15 16 17 18 19 20 21 22 23 24 25 26 27
000
ASUS45 KSLC 200610
RWRUT

UTAH REGIONAL WEATHER ROUNDUP
NATIONAL WEATHER SERVICE SALT LAKE CITY UT
1200 AM MDT WED SEP 20 2017

UTZ001>011-023>025-200700-

NORTHERN UTAH

CITY           SKY/WX    TMP DP  RH WIND       PRES   REMARKS
BRIGHAM CITY   CLEAR     45  37  74 CALM      29.96S
HILL AFB       CLEAR     47  36  64 SE12      29.95S
LOGAN          CLEAR     42  38  85 SE3       29.96F
OGDEN          CLEAR     47  37  68 S8        29.94S
SALT LAKE CITY PTCLDY    52  41  66 CALM      29.94R
TOOELE VALLEY  CLEAR     46  39  76 CALM      29.94S
WENDOVER       CLEAR     52  26  36 E8        29.95R
HEBER CITY     MOCLDY    41  36  81 CALM      29.98R
WEST JORDAN    PTCLDY    51  40  68 W7        29.96S

$$

UTZ011>015-024>027-200700-

CENTRAL/NORTHEAST UTAH

CITY           SKY/WX    TMP DP  RH WIND       PRES   REMARKS
PROVO AIRPORT  PTCLDY    49  41  74 CALM      29.95S
MOAB/CANYONLAN CLEAR     64  37  36 W10       29.82R
DELTA          CLEAR     50  36  57 NE6       29.94R
PRICE          CLEAR     54  30  40 NW14      29.94R
ROOSEVELT      CLOUDY    52  37  58 SE5       29.98R
VERNAL         CLOUDY    51  37  58 N6        29.96R

$$

UTZ013>016-019>022-027-200700-

SOUTHERN UTAH

CITY           SKY/WX    TMP DP  RH WIND       PRES   REMARKS
BRYCE CANYON   CLEAR     55  33  43 SW14      30.06R
CEDAR CITY     CLEAR     58  37  45 SW7       29.93S
MILFORD        CLEAR     57  31  37 N14       29.93R
ST GEORGE      MOCLDY    73  36  25 SE13      29.81R
HANKSVILLE     CLEAR     70  32  24 W9        29.85R
BLANDING         N/A     61  30  31 SW7       30.02R

$$

REGIONAL REPORTS     COLORADO/ARIZONA

CITY           SKY/WX    TMP DP  RH WIND       PRES   REMARKS
CRAIG, CO      CLOUDY    40  36  86 CALM      30.04R
GRAND JUNCTION PTCLDY    62  37  39 MISG      29.85R
RIFLE, CO      CLOUDY    55  36  48 NW6       29.93R
MONTROSE, CO   MOCLDY    54  33  45 SE8       29.93R
CORTEZ, CO     CLEAR     67  20  16 SW20      29.97R
PAGE, AZ       CLEAR     72  33  24 W3        29.88R
GRAND CANYON   CLEAR     45  31  58 CALM      30.09R
KINGMAN, AZ    CLEAR     69  36  29 S12       29.88R
FLAGSTAFF, AZ  CLEAR     56  32  40 W9        30.13S

$$

REGIONAL REPORTS    NEVADA/IDAHO/WYOMING

CITY           SKY/WX    TMP DP  RH WIND       PRES   REMARKS
LAS VEGAS, NV  CLEAR     80  41  24 S9        29.75R
ELY, NY        CLEAR     40  21  46 S8        30.01R WCI  34
ELKO, NV       CLEAR     41  20  43 CALM      29.96S
POCATELLO, ID  NOT AVBL
BURLEY, ID     CLEAR     39  33  79 S7        29.91F WCI  34
FORT BRIDGER,    N/A     34  33  94 W6        30.04S WCI  29
EVANSTON, WY   CLEAR     37  30  75 CALM      30.01S
ROCK SPRINGS,  CLOUDY    34  30  85 S8        30.01S WCI  27
KEMMERER, WY     N/A     32  30  93 SW6       30.00S WCI  26

$$




USA.gov is the U.S. government's official web portal to all federal, state and local government web resources and services.